Spokane Felts, WA

8:50 AM PDT on October 18, 2017 (GMT -0700)
Felts

Weather History for KSFF - March, 2013

Change the Weather History Date:

Sunday, March 3, 2013

  Actual Average Record
Temperature  
Mean Temperature 39 °F 37 °F  
Max Temperature 47 °F 47 °F 55 °F (2005)
Min Temperature 31 °F 28 °F 17 °F (2015)
Degree Days  
Heating Degree Days 26 28  
Month to date heating degree days 61 84  
Since 1 July heating degree days 4169 4655  
Cooling Degree Days 0 0  
Month to date cooling degree days 0 0  
Year to date cooling degree days 0 0  
Moisture  
Dew Point 20 °F    
Average Humidity 47    
Maximum Humidity 65    
Minimum Humidity 28    
Precipitation  
Precipitation 0.00 in 0.04 in 0.22 in (2014)
Month to date precipitation T 0.12  
Year to date precipitation 2.23 3.45  
Sea Level Pressure  
Sea Level Pressure 30.03 in    
Wind  
Wind Speed 10 mph (West)    
Max Wind Speed 22 mph    
Max Gust Speed 29 mph    
Visibility 10 miles    
Events      
T = Trace of Precipitation, MM = Missing Value Source: NWS Daily Summary

Daily Weather History Graph

Daily Weather History Graph

Search for Another Location

Airport or City:

Trip Planner

Search our weather history database for the weather conditions in past years. The results will help you decide how hot, cold, wet, or windy it might be!

Date:

Astronomy

Mar. 03, 2013 Rise Set
Actual Time 6:25 AM PST 5:37 PM PST
Civil Twilight 5:54 AM PST 6:08 PM PST
Nautical Twilight 5:18 AM PST 6:44 PM PST
Astronomical Twilight 4:43 AM PST 7:20 PM PST
Moon No Moon Rise 9:15 AM PST (3/3)
Length of Visible Light 12h 13m
Length of Day
11h 12m
Waning Gibbous, 62% of the Moon is Illuminated
Mar 3
Waning Gibbous
Mar 4
Last Quarter
Mar 11
New
Mar 19
First Quarter
Mar 27
Full

Hourly Weather History & Observations

Time (PST) Temp. Windchill Dew Point Humidity Pressure Visibility Wind Dir Wind Speed Gust Speed Precip Events Conditions
12:03 AM 46.4 °F 40.7 °F 35.6 °F 66% 29.89 in 10.0 mi SW 12.7 mph - N/A   Overcast
12:53 AM 45.0 °F 37.9 °F 30.0 °F 56% 29.89 in 10.0 mi WSW 16.1 mph 24.2 mph N/A   Overcast
1:53 AM 41.0 °F 33.9 °F 23.0 °F 49% 29.90 in 10.0 mi WSW 12.7 mph 21.9 mph N/A   Mostly Cloudy
2:53 AM 37.9 °F 32.1 °F 23.0 °F 55% 29.91 in 10.0 mi West 8.1 mph - N/A   Clear
3:53 AM 37.4 °F 30.8 °F 21.2 °F 52% 29.91 in 10.0 mi West 9.2 mph 17.3 mph N/A   Clear
4:53 AM 36.0 °F 27.5 °F 19.0 °F 50% 29.96 in 10.0 mi West 12.7 mph 21.9 mph N/A   Scattered Clouds
5:53 AM 34.0 °F 25.5 °F 19.0 °F 54% 29.98 in 10.0 mi WSW 11.5 mph 19.6 mph N/A   Scattered Clouds
6:53 AM 34.0 °F 27.2 °F 19.9 °F 56% 29.99 in 10.0 mi WSW 8.1 mph 19.6 mph N/A   Overcast
7:53 AM 34.0 °F 26.0 °F 19.9 °F 56% 30.00 in 10.0 mi WSW 10.4 mph - N/A   Clear
8:53 AM 37.9 °F 30.9 °F 21.0 °F 51% 30.00 in 10.0 mi West 10.4 mph 18.4 mph N/A   Mostly Cloudy
9:53 AM 37.9 °F 29.2 °F 21.0 °F 51% 30.01 in 10.0 mi WSW 15.0 mph 20.7 mph N/A   Overcast
10:53 AM 42.1 °F 35.2 °F 19.0 °F 40% 30.02 in 10.0 mi West 12.7 mph 23.0 mph N/A   Mostly Cloudy
11:53 AM 44.1 °F 37.1 °F 17.1 °F 34% 30.02 in 10.0 mi West 15.0 mph 21.9 mph N/A   Mostly Cloudy
12:53 PM 43.0 °F 36.0 °F 15.1 °F 32% 30.04 in 10.0 mi WNW 13.8 mph 23.0 mph N/A   Scattered Clouds
1:53 PM 45.0 °F 38.9 °F 17.1 °F 33% 30.05 in 10.0 mi West 12.7 mph 21.9 mph N/A   Scattered Clouds
2:53 PM 45.0 °F 38.9 °F 16.0 °F 31% 30.05 in 10.0 mi West 12.7 mph 26.5 mph N/A   Clear
3:53 PM 45.0 °F 38.5 °F 16.0 °F 31% 30.06 in 10.0 mi WSW 13.8 mph 20.7 mph N/A   Scattered Clouds
4:53 PM 45.0 °F 38.9 °F 16.0 °F 31% 30.06 in 10.0 mi WSW 12.7 mph 19.6 mph N/A   Scattered Clouds
5:53 PM 44.1 °F 39.5 °F 14.0 °F 30% 30.09 in 10.0 mi West 8.1 mph - N/A   Mostly Cloudy
6:53 PM 43.0 °F 41.3 °F 16.0 °F 34% 30.12 in 10.0 mi Variable 3.5 mph - N/A   Mostly Cloudy
7:53 PM 41.0 °F 37.1 °F 16.0 °F 36% 30.15 in 10.0 mi Variable 5.8 mph - N/A   Mostly Cloudy
8:53 PM 39.9 °F 35.1 °F 17.1 °F 40% 30.16 in 10.0 mi NNW 6.9 mph - N/A   Overcast
9:53 PM 39.0 °F 36.8 °F 18.0 °F 43% 30.17 in 10.0 mi NNE 3.5 mph - N/A   Overcast
10:53 PM 37.0 °F 33.3 °F 18.0 °F 46% 30.18 in 10.0 mi North 4.6 mph - N/A   Scattered Clouds
11:53 PM 32.0 °F - 21.0 °F 64% 30.21 in 10.0 mi Calm Calm - N/A   Clear